sat.trackr.live / text

‹ back to catalog

STARLINK-5359

NORAD 54864 · 2022-177AW

PAYLOAD ACTIVE UNKNOWN

§ Identity

Operator
Country
US
Launch date
2022-12-28
Launch site
AFETR
Launch vehicle
Mass (kg)
RCS (m²)

Purposes: comms

External: N2YO · Heavens-Above · Gunter

§ Orbital elements

Epoch: 2026-05-25T02:30:14.224320Z

Period
94.27 min
Inclination
43.0045°
Eccentricity
0.0001034
Mean motion
15.27541788 rev/d
Perigee alt
482.5 km
Apogee alt
483.9 km
Semi-major
6,861.3 km
B*
-1.6836e-4
RAAN
50.3295°
Arg perigee
242.9558°
Mean anomaly
117.1188°
Rev number
18,877

§ Raw data

STARLINK-53591 54864U 22177AW  26145.10433130 -.00004886  00000+0 -16836-3 0  99932 54864  43.0045  50.3295 0001034 242.9558 117.1188 15.27541788188778

JSON: /api/v1/satellites/54864 · /tle

For live sub-satellite position, see the globe view (requires WebGL).

§ Visibility from observer

Set your observer location to see the next 7 days of passes ≥ 10°. The values pass through the URL so the page stays shareable.

No JS? Fill the form by hand. The geolocation button needs JavaScript.